N2ADK Weather Reports


Display with metric or nautical units.
time (UTC)temp
F
wind
direction
speed
MPH
gust
MPH
rain 1hr
in
rain 24hr
in
rain mn
in
humidity
%
barometer
mb
20260905213518 72 0 0.0 5.0 0.00 0.00 0.00 79 1013.0
20260905213039 72 0 1.0 6.0 0.00 0.00 0.00 78 1013.0
20260905212525 72 211 1.0 6.0 0.00 0.00 0.00 77 1012.9
20260905212018 73 245 2.0 7.0 0.00 0.00 0.00 76 1013.0
20260905211540 73 56 1.0 7.0 0.00 0.00 0.00 77 1013.0
20260905211020 72 0 1.0 6.0 0.00 0.00 0.00 76 1012.9
20260905210524 72 19 1.0 9.0 0.00 0.00 0.00 77 1012.9
20260905210043 72 342 4.0 9.0 0.00 0.00 0.00 76 1013.1
20260905204539 72 0 0.0 8.0 0.00 0.00 0.00 76 1012.9
20260905203051 72 260 1.0 7.0 0.00 0.00 0.00 76 1013.0
20260905202521 72 0 1.0 7.0 0.00 0.00 0.00 76 1013.0
20260905202020 72 0 1.0 7.0 0.00 0.00 0.00 77 1013.0
20260905201544 71 179 0.0 5.0 0.00 0.00 0.00 77 1013.1
20260905201020 71 0 1.0 6.0 0.00 0.00 0.00 76 1013.1
20260905200523 72 0 1.0 6.0 0.00 0.00 0.00 75 1013.0
20260905200051 72 276 2.0 8.0 0.00 0.00 0.00 74 1013.1
20260905195520 73 260 1.0 8.0 0.00 0.00 0.00 73 1013.0
20260905195020 73 260 3.0 8.0 0.00 0.00 0.00 73 1013.0
20260905194538 73 1 2.0 8.0 0.00 0.00 0.00 74 1013.0
20260905193041 73 0 1.0 7.0 0.00 0.00 0.00 71 1012.8
20260905192020 74 1 1.0 6.0 0.00 0.00 0.00 70 1012.9
20260905191538 74 5 2.0 10.0 0.00 0.00 0.00 70 1012.9
20260905191021 74 255 2.0 10.0 0.00 0.00 0.00 70 1012.8
20260905190520 74 0 2.0 8.0 0.00 0.00 0.00 70 1012.7
20260905190040 74 301 2.0 6.0 0.00 0.00 0.00 71 1012.8
20260905185521 74 334 1.0 4.0 0.00 0.00 0.00 72 1012.7
20260905185020 74 295 1.0 4.0 0.00 0.00 0.00 70 1012.7
20260905184542 74 0 1.0 5.0 0.00 0.00 0.00 69 1012.7
20260905183040 74 265 2.0 5.0 0.00 0.00 0.00 68 1012.9
20260905182521 74 0 0.0 4.0 0.00 0.00 0.00 74 1012.9
20260905182020 73 15 1.0 4.0 0.00 0.00 0.00 73 1013.0
20260905181555 72 340 0.0 3.0 0.00 0.00 0.00 74 1013.1
20260905180041 71 0 0.0 2.0 0.00 0.00 0.00 76 1013.2
20260905175520 71 0 0.0 3.0 0.00 0.00 0.00 78 1013.0
20260905175019 71 0 0.0 3.0 0.00 0.00 0.00 74 1013.1
20260905174552 72 0 1.0 3.0 0.00 0.00 0.00 74 1013.0
20260905174025 72 341 0.0 3.0 0.00 0.00 0.00 73 1013.1
20260905173521 72 0 1.0 6.0 0.00 0.00 0.00 72 1013.2
20260905173037 73 282 2.0 6.0 0.00 0.00 0.00 72 1013.2
20260905171544 72 329 0.0 4.0 0.00 0.00 0.00 74 1013.1
20260905170038 74 2 1.0 5.0 0.00 0.00 0.00 71 1013.1
20260905165021 74 0 1.0 6.0 0.00 0.00 0.00 70 1013.1
20260905164540 74 22 0.0 6.0 0.00 0.00 0.00 74 1013.1
20260905164021 73 0 0.0 8.0 0.00 0.00 0.00 72 1013.1
20260905163519 74 276 1.0 8.0 0.00 0.00 0.00 69 1013.0
20260905163042 73 13 1.0 8.0 0.00 0.00 0.00 70 1013.2
20260905161540 73 0 1.0 4.0 0.00 0.00 0.00 70 1013.3
20260905161019 74 336 1.0 5.0 0.00 0.00 0.00 70 1013.2
20260905160522 74 265 0.0 5.0 0.00 0.00 0.00 74 1013.3
20260905160107 73 0 1.0 5.0 0.00 0.00 0.00 72 1013.5
20260905155023 72 0 1.0 7.0 0.00 0.00 0.00 75 1013.5
20260905154540 72 24 1.0 8.0 0.00 0.00 0.00 73 1013.6
20260905153039 72 37 2.0 8.0 0.00 0.00 0.00 74 1013.6
20260905152521 72 350 2.0 7.0 0.00 0.00 0.00 74 1013.6
20260905152021 72 10 1.0 7.0 0.00 0.00 0.00 74 1013.7
20260905151539 72 18 2.0 7.0 0.00 0.00 0.00 78 1013.8
20260905151019 72 66 1.0 7.0 0.00 0.00 0.00 80 1013.6
20260905150520 72 36 2.0 7.0 0.00 0.00 0.00 76 1013.7
20260905150040 72 320 1.0 6.0 0.00 0.00 0.00 79 1013.7
20260905144542 71 17 2.0 8.0 0.00 0.00 0.00 78 1013.6
20260905143041 70 11 1.0 7.0 0.00 0.00 0.00 80 1013.7
20260905142523 70 350 1.0 7.0 0.00 0.00 0.00 79 1013.7
20260905141543 70 34 1.0 6.0 0.00 0.00 0.00 80 1013.7
20260905140041 69 0 1.0 4.0 0.00 0.00 0.00 84 1013.7
20260905135520 69 0 0.0 3.0 0.00 0.00 0.00 85 1013.5
20260905135021 68 9 0.0 3.0 0.00 0.00 0.00 86 1013.6
20260905134537 67 0 0.0 3.0 0.00 0.00 0.00 86 1013.7
20260905134024 67 0 0.0 3.0 0.00 0.00 0.00 86 1013.7
20260905133519 67 294 0.0 2.0 0.00 0.00 0.00 86 1013.8
20260905133042 68 0 0.0 3.0 0.00 0.00 0.00 87 1013.7
20260905131540 67 0 0.0 3.0 0.00 0.00 0.00 91 1013.9
20260905130039 65 0 0.0 2.0 0.00 0.00 0.00 97 1014.2
20260905125520 64 352 0.0 2.0 0.00 0.00 0.00 99 1014.1
20260905125018 64 0 0.0 1.0 0.00 0.00 0.00 99 1014.1
20260905124541 63 0 0.0 1.0 0.00 0.00 0.00 99 1014.0
20260905124019 62 0 0.0 1.0 0.00 0.00 0.00 99 1014.0
20260905123519 62 0 0.0 1.0 0.00 0.00 0.00 99 1014.1
20260905123038 61 0 0.0 1.0 0.00 0.00 0.00 99 1014.0
20260905121539 59 0 0.0 0.0 0.00 0.00 0.00 99 1014.0
20260905120041 58 0 0.0 0.0 0.00 0.00 0.00 98 1013.9
20260905115520 57 0 0.0 0.0 0.00 0.00 0.00 98 1013.8
20260905115020 57 0 0.0 0.0 0.00 0.00 0.00 98 1013.8
20260905114539 57 0 0.0 0.0 0.00 0.00 0.00 98 1013.9
20260905113040 56 0 0.0 0.0 0.00 0.00 0.00 98 1013.6
20260905111538 56 0 0.0 0.0 0.00 0.00 0.00 97 1013.3
20260905110522 56 0 0.0 0.0 0.00 0.00 0.00 97 1013.1
20260905110037 56 0 0.0 0.0 0.00 0.00 0.00 97 1013.0
20260905105520 56 0 0.0 0.0 0.00 0.00 0.00 97 1012.9
20260905105021 56 0 0.0 0.0 0.00 0.00 0.00 97 1012.8
20260905104537 56 0 0.0 0.0 0.00 0.00 0.00 97 1012.8
20260905103046 57 0 0.0 2.0 0.00 0.00 0.00 97 1012.7
20260905102018 57 0 0.0 0.0 0.00 0.00 0.00 97 1012.5
20260905101537 57 0 0.0 0.0 0.00 0.00 0.00 97 1012.5
20260905101020 57 0 0.0 0.0 0.00 0.00 0.00 97 1012.4
20260905100517 58 0 0.0 0.0 0.00 0.00 0.00 97 1012.3
20260905100045 58 0 0.0 0.0 0.00 0.00 0.00 97 1012.3
20260905095520 58 0 0.0 0.0 0.00 0.00 0.00 97 1012.3
20260905095018 58 0 0.0 0.0 0.00 0.00 0.00 97 1012.5
20260905094540 58 0 0.0 0.0 0.00 0.00 0.00 97 1012.4
20260905093040 59 0 0.0 0.0 0.00 0.00 0.00 97 1012.4
20260905092020 59 0 0.0 0.0 0.00 0.00 0.00 97 1012.5
20260905091611 59 0 0.0 0.0 0.00 0.00 0.00 97 1012.5
20260905091026 59 0 0.0 0.0 0.00 0.00 0.00 97 1012.6
20260905090520 59 0 0.0 0.0 0.00 0.00 0.00 97 1012.5
20260905090039 60 0 0.0 0.0 0.00 0.00 0.00 97 1012.6
20260905084540 60 0 0.0 0.0 0.00 0.00 0.00 97 1012.5
20260905083037 61 0 0.0 0.0 0.00 0.00 0.00 97 1012.6
20260905082520 61 0 0.0 0.0 0.00 0.00 0.00 97 1012.7
20260905082021 61 0 0.0 0.0 0.00 0.00 0.00 97 1012.5
20260905081543 61 0 0.0 0.0 0.00 0.00 0.00 96 1012.7
20260905080049 61 0 0.0 0.0 0.00 0.00 0.00 97 1012.6
20260905074542 61 0 0.0 0.0 0.00 0.00 0.00 96 1012.6
20260905074021 62 0 0.0 0.0 0.00 0.00 0.00 96 1012.5
20260905073521 62 0 0.0 0.0 0.00 0.00 0.00 96 1012.5
20260905073053 62 0 0.0 0.0 0.00 0.00 0.00 96 1012.6
20260905071537 62 0 0.0 1.0 0.00 0.00 0.00 96 1012.6
20260905070046 62 0 0.0 0.0 0.00 0.00 0.00 96 1012.7
20260905064543 62 0 0.0 1.0 0.00 0.01 0.00 96 1012.9
20260905063519 62 0 0.0 0.0 0.00 0.01 0.00 96 1012.9
20260905063039 62 0 0.0 0.0 0.00 0.01 0.00 96 1012.9
20260905061557 62 0 0.0 0.0 0.00 0.01 0.00 96 1012.9
20260905060051 62 0 0.0 1.0 0.00 0.01 0.00 95 1012.9
20260905054541 62 0 0.0 0.0 0.00 0.01 0.00 96 1013.0
20260905053043 63 0 0.0 2.0 0.00 0.01 0.00 95 1013.0
20260905051545 62 0 0.0 0.0 0.00 0.01 0.00 96 1013.0
20260905051020 62 0 0.0 0.0 0.00 0.01 0.00 96 1013.1
20260905050520 62 0 0.0 0.0 0.00 0.01 0.00 96 1013.1
20260905050040 62 0 0.0 0.0 0.00 0.01 0.00 96 1013.2
20260905045517 62 0 0.0 0.0 0.00 0.01 0.00 96 1013.3
20260905045020 62 0 0.0 1.0 0.00 0.01 0.00 96 1013.3
20260905044541 62 0 0.0 1.0 0.00 0.01 0.00 96 1013.3
20260905043040 61 0 0.0 0.0 0.00 0.01 0.00 96 1013.3
20260905042018 61 0 0.0 0.0 0.00 0.01 0.00 96 1013.2
20260905041539 61 0 0.0 0.0 0.00 0.01 0.00 96 1013.3
20260905041024 61 0 0.0 0.0 0.00 0.01 0.00 96 1013.3
20260905040520 61 0 0.0 0.0 0.00 0.01 0.00 96 1013.1
20260905040037 61 0 0.0 2.0 0.00 0.01 0.00 96 1013.1
20260905034552 60 0 0.0 0.0 0.00 0.01 0.01 97 1013.1
20260905033518 60 0 0.0 0.0 0.00 0.01 0.01 97 1013.3
20260905033038 60 0 0.0 0.0 0.00 0.01 0.01 97 1013.3
20260905032520 60 0 0.0 0.0 0.00 0.01 0.01 97 1013.1
20260905032021 60 0 0.0 0.0 0.00 0.01 0.01 97 1013.1
20260905031538 60 0 0.0 0.0 0.00 0.01 0.01 97 1013.1
20260905031020 60 0 0.0 0.0 0.00 0.01 0.01 97 1013.2
20260905030040 59 0 0.0 0.0 0.00 0.01 0.01 96 1013.2
20260905024539 60 0 0.0 0.0 0.00 0.01 0.01 95 1013.3
20260905024021 60 0 0.0 0.0 0.00 0.01 0.01 95 1013.2
20260905023521 60 0 0.0 2.0 0.00 0.01 0.01 95 1013.3
20260905023039 60 0 0.0 2.0 0.00 0.01 0.01 95 1013.4
20260905022523 60 0 0.0 0.0 0.00 0.01 0.01 95 1013.4
20260905022020 60 0 0.0 0.0 0.00 0.01 0.01 95 1013.3
20260905021536 60 0 0.0 0.0 0.00 0.01 0.01 95 1013.5
20260905021023 60 0 0.0 0.0 0.00 0.01 0.01 95 1013.6
20260905015019 60 0 0.0 0.0 0.00 0.01 0.01 94 1013.7
20260905014539 60 0 0.0 1.0 0.00 0.01 0.01 94 1013.6
20260905014021 60 0 0.0 1.0 0.00 0.01 0.01 94 1013.5
20260905013521 61 0 0.0 0.0 0.00 0.01 0.01 94 1013.6
20260905013037 61 0 0.0 0.0 0.00 0.01 0.01 94 1013.5
20260905011543 61 0 0.0 0.0 0.00 0.01 0.01 93 1013.6
20260905010038 62 0 0.0 2.0 0.00 0.01 0.01 93 1013.6
20260905005521 62 0 0.0 2.0 0.00 0.01 0.01 93 1013.5
20260905005020 62 352 0.0 2.0 0.00 0.01 0.01 93 1013.5
20260905004545 63 0 0.0 0.0 0.00 0.01 0.01 93 1013.6
20260905004020 63 0 0.0 0.0 0.00 0.01 0.01 93 1013.5
20260905003521 63 0 0.0 0.0 0.00 0.01 0.01 93 1013.5
20260905003039 63 0 0.0 1.0 0.00 0.01 0.01 92 1013.4
20260905001552 63 0 0.0 1.0 0.00 0.01 0.01 91 1013.3
20260905000519 64 0 0.0 0.0 0.00 0.01 0.01 90 1013.3
20260905000039 64 0 0.0 0.0 0.00 0.01 0.01 89 1013.3
20260904235520 65 0 0.0 0.0 0.00 0.01 0.01 88 1013.3
20260904235017 65 0 0.0 0.0 0.00 0.01 0.01 87 1013.5
20260904234542 66 0 0.0 0.0 0.00 0.01 0.01 86 1013.3
20260904234020 66 0 0.0 0.0 0.00 0.01 0.01 85 1013.3
20260904233521 67 0 0.0 0.0 0.00 0.01 0.01 84 1013.3
20260904233043 67 0 0.0 0.0 0.00 0.01 0.01 82 1013.3
20260904232521 68 0 0.0 0.0 0.00 0.01 0.01 82 1013.2
20260904232022 68 0 0.0 1.0 0.00 0.01 0.01 82 1013.2
20260904231550 69 0 0.0 1.0 0.00 0.01 0.01 82 1013.2
20260904231016 70 0 0.0 1.0 0.00 0.01 0.01 81 1013.2
20260904230044 71 0 0.0 1.0 0.00 0.01 0.01 74 1013.1
20260904225018 72 0 0.0 2.0 0.00 0.01 0.01 72 1013.0
20260904224548 72 352 0.0 2.0 0.00 0.01 0.01 71 1012.9
20260904224020 73 0 0.0 4.0 0.00 0.01 0.01 70 1012.9
20260904223521 73 352 0.0 4.0 0.00 0.01 0.01 69 1012.9
20260904223055 73 9 0.0 3.0 0.00 0.01 0.01 68 1012.9
20260904222520 73 9 0.0 3.0 0.00 0.01 0.01 68 1013.1
20260904222020 74 0 0.0 3.0 0.00 0.01 0.01 70 1013.0
20260904221538 74 0 0.0 5.0 0.00 0.01 0.01 67 1012.9
20260904221018 74 0 1.0 8.0 0.00 0.01 0.01 67 1012.8
20260904220519 74 342 2.0 8.0 0.00 0.01 0.01 65 1013.0
20260904220040 75 309 2.0 8.0 0.00 0.01 0.01 65 1013.0